Berlin, NH

8:52 PM EDT on May 23, 2017 (GMT -0400)
Berlin Municipal

Weather History for KBML - January, 1997

Change the Weather History Date:

Sunday, January 19, 1997

  Actual Average Record
Temperature  
Mean Temperature -8 °F -  
Max Temperature 12 °F 19 °F 41 °F (1999)
Min Temperature -27 °F 0 °F -27 °F (1997)
Degree Days  
Heating Degree Days 74    
Moisture  
Dew Point -14 °F    
Average Humidity 65    
Maximum Humidity 83    
Minimum Humidity 51    
Precipitation  
Precipitation 0.00 in - - ()
Sea Level Pressure  
Sea Level Pressure 29.98 in    
Wind  
Wind Speed 2 mph (WNW)    
Max Wind Speed 9 mph    
Max Gust Speed -    
Visibility 10 miles    
Events      
Averages and records for this station are not official NWS values.
T = Trace of Precipitation, MM = Missing Value Source: NWS Daily Summary

Daily Weather History Graph

Daily Weather History Graph

Search for Another Location

Airport or City:

Trip Planner

Search our weather history database for the weather conditions in past years. The results will help you decide how hot, cold, wet, or windy it might be!

Date:

Astronomy

Jan. 19, 1997 Rise Set
Actual Time 7:15 AM EST 4:36 PM EST
Civil Twilight 6:43 AM EST 5:08 PM EST
Nautical Twilight 6:07 AM EST 5:43 PM EST
Astronomical Twilight 5:32 AM EST 6:18 PM EST
Moon 1:38 PM EST (1/19) 3:43 AM EST (1/19)
Length of Visible Light 10h 24m
Length of Day
9h 20m
Waxing Gibbous, 86% of the Moon is Illuminated
Jan 19
Waxing Gibbous
Jan 23
Full
Jan 31
Last Quarter
Feb 7
New
Feb 14
First Quarter

Hourly Weather History & Observations

Time (EST) Temp. Windchill Dew Point Humidity Pressure Visibility Wind Dir Wind Speed Gust Speed Precip Events Conditions
12:52 AM -16.1 °F - -26.0 °F 61% 30.06 in 10.0 mi Calm Calm - N/A   Clear
1:52 AM -17.0 °F -29.7 °F -27.0 °F 60% 30.05 in 10.0 mi NNW 4.6 mph - N/A   Clear
2:52 AM -18.0 °F -30.9 °F -27.0 °F 64% 30.04 in 10.0 mi NE 4.6 mph - N/A   Clear
3:52 AM -20.9 °F -31.7 °F -27.0 °F 73% 30.04 in 10.0 mi North 3.5 mph - N/A   Clear
4:52 AM -23.1 °F -36.8 °F -29.9 °F 70% 30.05 in 10.0 mi South 4.6 mph - N/A   Clear
5:52 AM -26.0 °F - - N/A% 30.05 in 10.0 mi Calm Calm - N/A   Clear
6:52 AM -27.9 °F - - N/A% 30.06 in 10.0 mi Calm Calm - N/A   Clear
7:52 AM -27.9 °F - - N/A% 30.06 in 10.0 mi Calm Calm - N/A   Clear
8:52 AM -22.0 °F -39.4 °F -27.9 °F 74% 30.07 in 10.0 mi South 6.9 mph - N/A   Clear
9:52 AM -11.9 °F - -23.1 °F 58% 30.06 in 10.0 mi Calm Calm - N/A   Clear
10:52 AM -2.9 °F -15.0 °F -17.0 °F 51% 30.01 in 10.0 mi Variable 5.8 mph - N/A   Mostly Cloudy
11:52 AM -0.0 °F -9.9 °F -13.0 °F 54% 29.98 in 10.0 mi Variable 4.6 mph - N/A   Overcast
12:52 PM 1.9 °F -5.6 °F -11.0 °F 55% 29.95 in 10.0 mi Variable 3.5 mph - N/A   Overcast
1:52 PM 3.0 °F - -9.0 °F 57% 29.94 in 10.0 mi Calm Calm - N/A   Overcast
2:52 PM 6.1 °F - -8.0 °F 53% 29.94 in 10.0 mi Calm Calm - N/A   Clear
3:52 PM 3.9 °F -5.3 °F -6.0 °F 64% 29.93 in 10.0 mi North 4.6 mph - N/A   Clear
4:52 PM 1.9 °F - -6.0 °F 69% 29.94 in 10.0 mi Calm Calm - N/A   Partly Cloudy
5:52 PM 1.0 °F - -7.1 °F 69% 29.94 in 10.0 mi Calm Calm - N/A   Partly Cloudy
6:52 PM -2.9 °F - -8.0 °F 79% 29.94 in 10.0 mi Calm Calm - N/A   Clear
7:52 PM -5.1 °F - -9.9 °F 80% 29.93 in 10.0 mi Calm Calm - N/A   Clear
8:52 PM -2.9 °F - -7.1 °F 82% 29.91 in 10.0 mi Calm Calm - N/A   Scattered Clouds
9:52 PM -0.9 °F -8.9 °F -5.1 °F 83% 29.88 in 10.0 mi ESE 3.5 mph - N/A   Overcast
10:52 PM 10.9 °F -1.8 °F -2.0 °F 56% 29.84 in 10.0 mi WSW 9.2 mph - N/A   Overcast
11:52 PM 12.0 °F -0.4 °F -2.9 °F 51% 29.83 in 10.0 mi WSW 9.2 mph - N/A   Overcast